Regional Weather Roundup
Issued by NWS

Home | Current Version | Previous Version | Graphics & Text | Print | Product List | Glossary On
Versions: 1 2 3 4 5 6 7 8 9 10 11 12 13 14 15 16 17 18 19 20 21 22 23 24 25 26 27 28 29 30 31 32 33 34 35 36 37 38 39 40 41 42 43 44 45 46 47 48 49 50
000
ASUS43 KLOT 032103
RWRIL

ILLINOIS REGIONAL WEATHER ROUNDUP
NATIONAL WEATHER SERVICE CHICAGO/ROMEOVILLE IL
300 PM CST SAT DEC 03 2016

NOTE: "FAIR" INDICATES FEW OR NO CLOUDS BELOW 12,000 FEET WITH NO
SIGNIFICANT WEATHER AND/OR OBSTRUCTIONS TO VISIBILITY.

* THESE STATIONS ARE NOT UNDER NWS QUALITY CONTROL. THEY ALSO MAY NOT
  REPORT WEATHER SUCH AS PRECIPITATION OR FOG.

ILZ001-002-007-009-015-016-024-032200-
NORTHWEST ILLINOIS

CITY           SKY/WX    TMP DP  RH WIND       PRES   REMARKS
MOLINE         CLOUDY    39  25  57 S5        30.31S
STERLING*      CLOUDY    37  27  67 VRB3      30.32S
SAVANNA*       CLOUDY    37  27  65 S3        30.30F
$$

ILZ003-004-008-010-011-017-018-032200-
NORTH CENTRAL ILLINOIS

CITY           SKY/WX    TMP DP  RH WIND       PRES   REMARKS
ROCKFORD       CLOUDY    36  24  62 W3        30.34R
FREEPORT*      CLOUDY    34  26  71 SW3       30.33R
ROCHELLE*      CLOUDY    36  26  66 CALM      30.32R
$$

ILZ005-006-012>014-019>023-032200-
NORTHEAST ILLINOIS

CITY           SKY/WX    TMP DP  RH WIND       PRES   REMARKS
CHICAGO-OHARE  PTSUNNY   33  24  69 W6        30.33R WCI  28
CHICAGO-MIDWAY PTSUNNY   34  23  64 W8        30.34R WCI  27
AURORA         PTSUNNY   35  25  66 CALM      30.33R
LANSING*       CLOUDY    33  26  75 W7        30.34S WCI  27
JOLIET*        PTSUNNY   35  26  69 CALM      30.35S
WAUKEGAN       CLOUDY    32  22  66 W5        30.32R WCI  27
DUPAGE AIRPORT PTSUNNY   34  23  64 W6        30.32R WCI  29
KANKAKEE*      CLOUDY    34  26  74 W6        30.35S WCI  29
WHEELING       CLOUDY    33  22  63 SW7       30.35R WCI  27
MORRIS*        PTSUNNY   34  26  71 CALM      30.33F
ROMEOVILLE*    CLOUDY    33  28  80 W5        30.34S WCI  29
NORTHERLY ISL    N/A     34  23  64 W6          N/A  WCI  29
$$

LMZ740>746-032200-
SOUTHERN LAKE MICHIGAN

STATION/POSITION SKY/WX   TEMP    WIND        PRES    VSBY  WAVE
                          AIR SEA DIR/SP/G                  HT/PER
                          (F)     (DEG/KT/KT) (MB)    (MI)  (FT/S)
SOUTHERN BUOY              34 49  260/  4/  6 1026.8F         1/ 3
HARRISON CRIB              35     230/  4/  6   N/A
BURNHAM HARBOR             35     250/  5/  8   N/A
CALUMET HARBOR             34     210/  6/  9 1026.5R
BURNS HARBOR               36     220/  7/ 10 1027.4F
MICHIGAN CITY              35     220/ 11/ 13   N/A
$$

ILZ025>027-034>036-040-047-049-050-058-095>099-032200-
WEST-CENTRAL ILLINOIS

CITY           SKY/WX    TMP DP  RH WIND       PRES   REMARKS
QUINCY         MOSUNNY   42  33  70 SE7       30.28F
GALESBURG*     CLOUDY    37  28  70 E5        30.31S WCI  33
MACOMB*        SUNNY     40  31  70 SE6       30.32F
JACKSONVILLE*  PTSUNNY   41  33  73 E6        30.30F
PITTSFIELD*    MOSUNNY   43  34  71 E7        30.29F
$$

ILZ028>032-037-038-041>044-048-051>054-059>061-032200-
CENTRAL ILLINOIS

CITY           SKY/WX    TMP DP  RH WIND       PRES   REMARKS
PONTIAC        CLOUDY    35  28  78 NW3       30.35S
BLOOMINGTON    CLOUDY    35  28  75 NE5       30.33F WCI  31
DECATUR        PTSUNNY   39  30  70 NE5       30.32F
PEORIA         CLOUDY    38  27  64 CALM      30.33F
LACON*         SUNNY     36  26  65 CALM      30.33F
LINCOLN*       MOSUNNY   39  31  71 NE3       30.32F
SPRINGFIELD    MOSUNNY   42  31  64 NE6       30.31F
TAYLORVILLE    HAZE      40  32  73 E3        30.31F VSB 1
$$

ILZ033-039-045-046-055>057-062-063-032200-
EAST-CENTRAL ILLINOIS

CITY           SKY/WX    TMP DP  RH WIND       PRES   REMARKS
CHAMPAIGN      PTSUNNY   37  28  70 NW7       30.33F WCI  32
RANTOUL*       CLOUDY    37  30  75 N6        30.32F WCI  32
MATTOON        CLOUDY    39  30  70 N5        30.31F
PARIS*         CLOUDY    37  30  75 N7        30.33F WCI  32
$$

ILZ079-100>102-032200-
SOUTHWEST ILLINOIS

CITY           SKY/WX    TMP DP  RH WIND       PRES   REMARKS
ALTON          CLOUDY    43  32  65 E5        30.31S
CAHOKIA*       CLOUDY    44  32  62 E7        30.29F
SPARTA*        CLOUDY    42  32  69 SE6       30.31S
$$

ILZ064>066-069>071-074>076-080>082-084>086-088>090-092>094-032200-
SOUTH-CENTRAL ILLINOIS

CITY           SKY/WX    TMP DP  RH WIND       PRES   REMARKS
CARBONDALE     PTSUNNY   44  33  65 E7        30.30F
CAIRO*         CLOUDY    43  32  65 NE8       30.29F
EFFINGHAM*     MOSUNNY   42  33  71 NE3       30.33S
MARION         CLOUDY    45  32  61 SE12      30.32S
CENTRALIA*     CLOUDY    43  34  69 CALM      30.30F
SALEM*         CLOUDY    44  32  63 SE3       30.31S
METROPOLIS*    CLOUDY    43  32  63 CALM      30.31S
$$

ILZ067-068-072-073-078-083-087-091-032200-
SOUTHEAST ILLINOIS

CITY           SKY/WX    TMP DP  RH WIND       PRES   REMARKS
LAWRENCEVILLE  CLOUDY    43  30  60 NE5       30.33S
FLORA*         CLOUDY    44  32  62 CALM      30.32S
FAIRFIELD*     CLOUDY    43  33  67 CALM      30.32R
HARRISBURG*    PTSUNNY   43  33  66 E5        30.32S
ROBINSON*      CLOUDY    40  30  68 NE3       30.34R
CARMI*         CLOUDY    44  33  67 E5        30.32S
$$

ABBREVIATIONS USED IN REMARKS
   TC - TEMPERATURE IN CELSIUS
  WCI - WIND CHILL INDEX
   HX - HEAT INDEX
  VSB - VISIBILITY
$$




USA.gov is the U.S. government's official web portal to all federal, state and local government web resources and services.